Regional Weather Roundup
Issued by NWS

Home | Current Version | Previous Version | Text Only | Print | Product List | Glossary Off
Versions: 1 2 3 4 5 6 7 8 9 10 11 12 13 14 15 16 17 18 19 20 21 22 23 24 25 26 27 28 29 30 31 32 33 34 35 36 37 38 39 40 41 42 43 44 45 46 47 48 49 50

000
ASUS43 KTOP 200308
RWRKS

WEATHER ROUNDUP FOR KANSAS
NATIONAL WEATHER SERVICE GOODLAND KS
1000 PM CDT THU APR 19 2018

NOTE:  "FAIR" INDICATES FEW OR NO CLOUDS BELOW 12,000 FEET WITH NO
SIGNIFICANT WEATHER AND/OR OBSTRUCTIONS TO VISIBILITY.

KSZ001>006-013>018-027>032-041>047-200400-
NORTHWEST KANSAS

CITY           SKY/WX    TMP DP  RH WIND       PRES   REMARKS
GOODLAND       MOCLDY    49  26  41 SE20G30   30.17R
HAYS           CLOUDY    46  27  47 E8        30.30R
HILL CITY      PTCLDY    45  27  49 SE8       30.30R
RUSSELL        CLEAR     47  29  49 E12       30.30S
$$

KSZ061>065-074>080-084>089-200400-
SOUTHWEST KANSAS

CITY           SKY/WX    TMP DP  RH WIND       PRES   REMARKS
DODGE CITY     CLOUDY    48  25  40 SE12      30.27R
ELKHART        MOCLDY    58  30  35 SE18      30.18R
GARDEN CITY    CLEAR     49  25  39 SE16      30.21F
GREAT BEND     CLOUDY    48  28  46 SE10      30.30S
LIBERAL        CLOUDY    54  26  34 SE16      30.22R
PRATT          CLEAR     46  26  46 E5        30.31R
$$

KSZ066>073-081>083-090>101-200400-
SOUTHEAST KANSAS

CITY           SKY/WX    TMP DP  RH WIND       PRES   REMARKS
CHANUTE        CLEAR     48  32  53 E6        30.37R
COFFEYVILLE    PTCLDY    46  34  62 E3        30.36R
HUTCHINSON     CLEAR     46  28  49 E8        30.34R
MEDICINE LODGE   N/A     50  30  46 E5        30.31R
NEWTON         CLOUDY    45  27  49 E7        30.36R
PARSONS        CLOUDY    43  34  70 CALM      30.37R HAZE
WICHITA INTL   PTCLDY    49  28  44 E6        30.34R
WICHITA JABRA  CLEAR     45  27  49 E5        30.34R
WICHITA MCCONL CLEAR     50  26  40 SE6       30.34R
WINFIELD       CLEAR     49  27  42 E6        30.36R
$$

KSZ007>012-019>026-033>040-048>060-102>105-200400-
NORTHEAST KANSAS

CITY           SKY/WX    TMP DP  RH WIND       PRES   REMARKS
CONCORDIA      CLEAR     43  25  49 E5        30.34S
EMPORIA        CLEAR     46  29  51 E5        30.36R
LAWRENCE       CLOUDY    43  31  62 E3        30.38R
MANHATTAN      PTCLDY    45  27  49 CALM      30.37R
MARYSVILLE     CLOUDY    41  28  60 E3        30.37R
OLATHE IND     CLEAR     48  31  51 E3        30.39R
OLATHE EXE     CLEAR     47  30  51 E6        30.38R
SALINA         CLOUDY    51  28  41 SE8       30.35R
TOPEKA BILLARD CLOUDY    48  30  49 CALM      30.37R
TOPEKA FORBES  CLOUDY    43  30  60 E5        30.36R
$$




USA.gov is the U.S. government's official web portal to all federal, state and local government web resources and services.